トータス彗星

C/2017 M5 ( TOTAS )

English version
Home page
Updated on November 20, 2018

---------------------------------------------------------------------

・ プロフィール

発見日 2017年6月23日
発見光度 18.6等
発見者 Teide Observatory Tenerife Asteroid Survey (TOTAS)

・ 写真集

・ 軌道要素

Epoch 2018 June 11.0 TT = JDT 2458280.5
T 2018 June 2.96998 TT                                  MPCW
q   5.9895889            (2000.0)            P               Q
z  -0.0006437      Peri.   92.66091     +0.60571552     +0.77903794
 +/-0.0000064      Node   216.26224     -0.79432812     +0.58017623
e   1.0038553      Incl.   15.88477     -0.04638475     +0.23768767
From 310 observations 2016 May 30-2018 Sept. 17, mean residual 0".7.

・ 光度変化

        m1 = -1.0 + 5 logΔ + 20.0 log r

---------------------------------------------------------------------

軌道要素はM.P.E.C. 2018-S50に掲載されたものです。
光度グラフはComet for Windowsで作成したものです。

---------------------------------------------------------------------

Copyright(C) Seiichi Yoshida (comet@aerith.net). All rights reserved.